Погода в Гатчине

Россия / Санкт-Петербург и Ленинградская область     59°34′06″N   30°07′28″E
темп.,
°C
ветер,
м/с
пор.,
м/с
влажн.,
%
обл.,
%
осадки,
мм/ч
давл.,
гПа
погр.,
м
14 августа, вс
вс1400:00+15всв258717 0.0 102287
03:00+14всв228824 0.0 102244
06:00+14всв23825 0.0 102250
09:00+20всв23635 0.0 1022343
12:00+24всв22515 0.0 10211068
15:00+26св22445 0.0 10201703
18:00+25ссв335124 0.0 1020552
21:00+18всв27685 0.0 1020118
15 августа, пн
пн1500:00+15в24688 0.0 102067
03:00+15в228056 0.0 102021
06:00+15в228542 0.0 102032
09:00+22вюв236433 0.0 1020298
12:00+27юв244648 0.0 10201138
15:00+29ююв34395 0.0 10192124
18:00+28юв34435 0.0 10181608
21:00+20ююв22675 0.0 101818
16 августа, вт
вт1600:00+19юв227511 0.0 101938
03:00+18юв258212 0.0 101978
06:00+17юв238228 0.0 101951
09:00+23юв355944 0.0 1019313
12:00+27юв45437 0.0 10191238
15:00+29юв33387 0.0 10182053
18:00+27ююв454895 0.0 10181327
21:00+20ююв2583100 0.6 101893
17 августа, ср
ср1700:00+18ю228357 0.1 101817
03:00+19юв1177100 0.1 101812
06:00+19вюв2588100 0.1 1018113
09:00+21юв2582100 0.3 1018223
12:00+24ююв4760100 0.0 1019531
15:00+27ююв464489 0.0 10181271
18:00+26юв344995 0.0 1018651
21:00+20ююв2469100 0.0 101862
18 августа, чт
чт1800:00+19юв2274100 0.0 101947
03:00+18юв247696 0.0 101972
06:00+18юв237698 0.0 101950
09:00+23вюв24589 0.0 1019284
12:00+27вюв344352 0.0 10191162
15:00+29юв343933 0.0 10181616
18:00+27юв344762 0.0 10181277
21:00+21юв257286 0.0 101979